DAL545 CYVR-KSEA

Flight info

Callsign DAL545
Flight time 0h 26m
Altitude 15000
Route ROESH MARNR8
Aircraft A359/H-SDE2E3GHIJ3J4J5LM1ORWXY/LB1D1

Departure

Time 2026-05-06 03:28
Airport Vancouver International Airport (CYVR)

Arrival

Time 2026-05-06 03:55
Airport Seattle–Tacoma International Airport (KSEA)
Time Latitude Longitude Altitude Speed Heading
2026-05-06 03:07 49.19932 -123.18689 31 ft 0 kts 99°
2026-05-06 03:22 49.19919 -123.18617 31 ft 12 kts 118°
2026-05-06 03:22 49.19844 -123.18578 31 ft 13 kts 180°
2026-05-06 03:23 49.19748 -123.18618 31 ft 16 kts 204°
2026-05-06 03:23 49.19634 -123.18691 31 ft 19 kts 198°
2026-05-06 03:23 49.19493 -123.18731 31 ft 22 kts 191°
2026-05-06 03:23 49.19343 -123.18702 31 ft 22 kts 178°
2026-05-06 03:24 49.19184 -123.18713 31 ft 23 kts 161°
2026-05-06 03:24 49.19055 -123.18562 31 ft 24 kts 141°
2026-05-06 03:24 49.18945 -123.18374 31 ft 24 kts 101°
2026-05-06 03:24 49.18919 -123.18115 31 ft 25 kts 99°
2026-05-06 03:25 49.18888 -123.17838 31 ft 27 kts 100°
2026-05-06 03:25 49.18852 -123.17546 31 ft 29 kts 99°
2026-05-06 03:25 49.18816 -123.17238 31 ft 30 kts 100°
2026-05-06 03:25 49.18779 -123.16912 31 ft 32 kts 100°
2026-05-06 03:26 49.18741 -123.16576 31 ft 33 kts 100°
2026-05-06 03:26 49.18683 -123.16246 31 ft 28 kts 121°
2026-05-06 03:26 49.18626 -123.16197 31 ft 0 kts 180°
2026-05-06 03:26 49.18615 -123.16198 31 ft 6 kts 182°
2026-05-06 03:27 49.18558 -123.16208 31 ft 10 kts 191°
2026-05-06 03:27 49.18509 -123.16290 31 ft 12 kts 259°
2026-05-06 03:27 49.18525 -123.16514 31 ft 42 kts 279°
2026-05-06 03:27 49.18621 -123.17357 31 ft 118 kts 280°
2026-05-06 03:28 49.18803 -123.18947 47 ft 182 kts 280°
2026-05-06 03:28 49.19036 -123.20972 463 ft 208 kts 279°
2026-05-06 03:28 49.19296 -123.23214 1323 ft 216 kts 279°
2026-05-06 03:28 49.19496 -123.25533 2193 ft 227 kts 274°
2026-05-06 03:29 49.19428 -123.28001 3077 ft 236 kts 261°
2026-05-06 03:29 49.18963 -123.30456 3985 ft 244 kts 249°
2026-05-06 03:29 49.18099 -123.32728 4930 ft 250 kts 235°
2026-05-06 03:29 49.17073 -123.34903 5877 ft 254 kts 236°
2026-05-06 03:30 49.16030 -123.37115 6816 ft 260 kts 236°
2026-05-06 03:30 49.14938 -123.39366 7710 ft 267 kts 232°
2026-05-06 03:30 49.13396 -123.40947 8771 ft 272 kts 199°
2026-05-06 03:30 49.11506 -123.41143 9830 ft 278 kts 169°
2026-05-06 03:31 49.09743 -123.40035 10750 ft 283 kts 150°
2026-05-06 03:31 49.07993 -123.38471 11647 ft 290 kts 150°
2026-05-06 03:31 49.06245 -123.36948 12555 ft 295 kts 151°
2026-05-06 03:31 49.04429 -123.35416 13486 ft 301 kts 152°
2026-05-06 03:32 49.02565 -123.33869 14282 ft 308 kts 152°
2026-05-06 03:32 49.00667 -123.32306 14773 ft 312 kts 153°
2026-05-06 03:32 48.98736 -123.30724 14971 ft 319 kts 153°
2026-05-06 03:32 48.96680 -123.29049 15014 ft 352 kts 153°
2026-05-06 03:33 48.94426 -123.27215 15003 ft 378 kts 153°
2026-05-06 03:33 48.92086 -123.25310 14993 ft 383 kts 153°
2026-05-06 03:33 48.89754 -123.23412 14985 ft 383 kts 153°
2026-05-06 03:33 48.87397 -123.21497 14995 ft 383 kts 153°
2026-05-06 03:34 48.85048 -123.19591 14993 ft 383 kts 153°
2026-05-06 03:34 48.82695 -123.17684 14992 ft 383 kts 153°
2026-05-06 03:34 48.80351 -123.15787 14996 ft 383 kts 153°
2026-05-06 03:34 48.77990 -123.13879 14997 ft 383 kts 153°
2026-05-06 03:35 48.75638 -123.11979 14994 ft 383 kts 153°
2026-05-06 03:35 48.73284 -123.10080 14995 ft 383 kts 153°
2026-05-06 03:35 48.70927 -123.08181 14992 ft 383 kts 153°
2026-05-06 03:35 48.68576 -123.06289 14994 ft 383 kts 152°
2026-05-06 03:36 48.66215 -123.04390 14993 ft 383 kts 152°
2026-05-06 03:36 48.63861 -123.02543 14613 ft 379 kts 155°
2026-05-06 03:36 48.61375 -123.01344 14391 ft 372 kts 169°
2026-05-06 03:36 48.59514 -123.00802 14279 ft 366 kts 171°
2026-05-06 03:37 48.57245 -123.00174 14152 ft 363 kts 171°
2026-05-06 03:37 48.54757 -122.99473 14007 ft 363 kts 170°
2026-05-06 03:37 48.52280 -122.98768 13873 ft 362 kts 170°
2026-05-06 03:37 48.49802 -122.98061 13722 ft 362 kts 170°
2026-05-06 03:38 48.47330 -122.97353 13567 ft 361 kts 170°
2026-05-06 03:38 48.44871 -122.96649 13411 ft 359 kts 170°
2026-05-06 03:38 48.42417 -122.95946 13254 ft 358 kts 170°
2026-05-06 03:38 48.39993 -122.95252 13099 ft 357 kts 170°
2026-05-06 03:39 48.37556 -122.94555 12937 ft 356 kts 170°
2026-05-06 03:39 48.35113 -122.93857 12813 ft 361 kts 170°
2026-05-06 03:39 48.32623 -122.93147 12694 ft 365 kts 170°
2026-05-06 03:39 48.30123 -122.92434 12574 ft 366 kts 170°
2026-05-06 03:40 48.27621 -122.91721 12449 ft 365 kts 170°
2026-05-06 03:40 48.25134 -122.91013 12325 ft 364 kts 170°
2026-05-06 03:40 48.22643 -122.90397 12202 ft 360 kts 179°
2026-05-06 03:40 48.20147 -122.90029 12065 ft 361 kts 179°
2026-05-06 03:41 48.17647 -122.89570 11985 ft 362 kts 177°
2026-05-06 03:41 48.15148 -122.88996 11974 ft 362 kts 175°
2026-05-06 03:41 48.12668 -122.88368 11970 ft 362 kts 175°
2026-05-06 03:41 48.10186 -122.87707 11968 ft 361 kts 174°
2026-05-06 03:42 48.07791 -122.87050 11892 ft 345 kts 175°
2026-05-06 03:42 48.05500 -122.86291 11694 ft 334 kts 167°
2026-05-06 03:42 48.03389 -122.84816 11519 ft 336 kts 152°
2026-05-06 03:42 48.01596 -122.82576 11358 ft 336 kts 136°
2026-05-06 03:43 48.00647 -122.80752 11239 ft 334 kts 126°
2026-05-06 03:43 47.99542 -122.77779 11039 ft 320 kts 121°
2026-05-06 03:43 47.98195 -122.73991 10746 ft 306 kts 121°
2026-05-06 03:43 47.97632 -122.72020 10608 ft 307 kts 113°
2026-05-06 03:44 47.96949 -122.69008 10402 ft 305 kts 112°
2026-05-06 03:44 47.96288 -122.66053 10181 ft 294 kts 112°
2026-05-06 03:44 47.95648 -122.63220 9981 ft 283 kts 112°
2026-05-06 03:44 47.95031 -122.60506 9765 ft 277 kts 113°
2026-05-06 03:45 47.94405 -122.57801 9530 ft 275 kts 113°
2026-05-06 03:45 47.93773 -122.55111 9299 ft 275 kts 113°
2026-05-06 03:45 47.93133 -122.52425 9056 ft 274 kts 114°
2026-05-06 03:45 47.92477 -122.49760 8813 ft 273 kts 116°
2026-05-06 03:46 47.91404 -122.47498 8587 ft 267 kts 147°
2026-05-06 03:46 47.89749 -122.46381 8325 ft 261 kts 170°
2026-05-06 03:46 47.87959 -122.45685 8061 ft 269 kts 171°
2026-05-06 03:46 47.86138 -122.44966 7819 ft 271 kts 170°
2026-05-06 03:47 47.84332 -122.44216 7575 ft 267 kts 169°
2026-05-06 03:47 47.82570 -122.43451 7327 ft 259 kts 169°
2026-05-06 03:47 47.80871 -122.42693 7081 ft 252 kts 168°
2026-05-06 03:47 47.79209 -122.41943 6821 ft 246 kts 168°
2026-05-06 03:48 47.77588 -122.41206 6538 ft 243 kts 168°
2026-05-06 03:48 47.76035 -122.40251 6254 ft 246 kts 158°
2026-05-06 03:48 47.74525 -122.39074 5948 ft 244 kts 156°
2026-05-06 03:48 47.73033 -122.37884 5652 ft 242 kts 156°
2026-05-06 03:49 47.71561 -122.36712 5360 ft 241 kts 157°
2026-05-06 03:49 47.70086 -122.35544 5056 ft 239 kts 157°
2026-05-06 03:49 47.68619 -122.34381 4761 ft 237 kts 157°
2026-05-06 03:49 47.67175 -122.33233 4462 ft 234 kts 157°
2026-05-06 03:50 47.65753 -122.32106 4156 ft 231 kts 157°
2026-05-06 03:50 47.64291 -122.31170 3903 ft 225 kts 170°
2026-05-06 03:50 47.62765 -122.30857 3652 ft 220 kts 185°
2026-05-06 03:50 47.61250 -122.30896 3402 ft 214 kts 187°
2026-05-06 03:51 47.59805 -122.30907 3086 ft 199 kts 184°
2026-05-06 03:51 47.58468 -122.30849 2830 ft 185 kts 184°
2026-05-06 03:51 47.57246 -122.30809 2587 ft 167 kts 186°
2026-05-06 03:51 47.56137 -122.30798 2371 ft 151 kts 187°
2026-05-06 03:52 47.55143 -122.30797 2173 ft 139 kts 187°
2026-05-06 03:52 47.54186 -122.30803 2005 ft 134 kts 187°
2026-05-06 03:52 47.53262 -122.30807 1824 ft 134 kts 187°
2026-05-06 03:52 47.52331 -122.30808 1649 ft 132 kts 187°
2026-05-06 03:53 47.51416 -122.30807 1467 ft 131 kts 187°
2026-05-06 03:53 47.50508 -122.30809 1298 ft 130 kts 187°
2026-05-06 03:53 47.49609 -122.30828 1129 ft 126 kts 182°
2026-05-06 03:53 47.48714 -122.30792 1011 ft 130 kts 184°
2026-05-06 03:54 47.47814 -122.30775 805 ft 129 kts 185°
2026-05-06 03:54 47.46920 -122.30768 598 ft 128 kts 186°
2026-05-06 03:54 47.46037 -122.30776 414 ft 126 kts 182°
2026-05-06 03:54 47.45220 -122.30787 390 ft 103 kts 180°
2026-05-06 03:55 47.44784 -122.30791 390 ft 24 kts 180°
2026-05-06 03:55 47.44615 -122.30791 390 ft 25 kts 180°
2026-05-06 03:55 47.44449 -122.30794 390 ft 19 kts 180°
2026-05-06 03:55 47.44397 -122.30787 390 ft 4 kts 165°
2026-05-06 03:56 47.44363 -122.30746 390 ft 8 kts 124°
2026-05-06 03:56 47.44329 -122.30662 390 ft 11 kts 125°
2026-05-06 03:56 47.44306 -122.30548 390 ft 12 kts 118°
2026-05-06 03:56 47.44236 -122.30532 390 ft 12 kts 187°
2026-05-06 03:57 47.44143 -122.30541 390 ft 15 kts 182°
2026-05-06 03:57 47.44029 -122.30541 390 ft 17 kts 170°
2026-05-06 03:57 47.43985 -122.30418 390 ft 15 kts 117°
2026-05-06 03:57 47.43934 -122.30348 390 ft 8 kts 145°
2026-05-06 03:58 47.43925 -122.30340 390 ft 0 kts 145°